Location: Ostrava
(49.8330°N, 18.2830°E)
Time: 10:21:51
(UTC+02:00)

ISS - Pass Details

Date: 21 May 2021
Orbit: 417 x 422 km, 51.6° (Epoch: 13 June)

Event Time Altitude Azimuth Distance (km) Brightness Sun altitude
Rises 23:45:26 0° 287° (WNW) 2,369 0.5 -18.6°
Reaches altitude 10° 23:47:32 10° 286° (WNW) 1,504 -0.6 -18.7°
Maximum altitude 23:50:55 84° 201° (SSW) 427 -3.9 -18.8°
Enters shadow 23:51:19 67° 122° (ESE) 460 -3.8 -18.8°
